EW9957 Weather Reports


Display with metric or nautical units.
time (UTC)temp
F
wind
direction
speed
MPH
gust
MPH
rain 1hr
in
rain 24hr
in
rain mn
in
humidity
%
barometer
mb
20260510024029 63 36 4.0 6.0 0.00 0.00 0.00 81 1013.5
20260510023525 63 36 4.0 6.0 0.00 0.00 0.00 79 1013.5
20260510023026 63 32 4.0 7.0 0.00 0.00 0.00 79 1013.5
20260510022601 64 36 5.0 7.0 0.00 0.00 0.00 78 1013.4
20260510022015 64 35 3.0 7.0 0.00 0.00 0.00 79 1013.4
20260510021537 64 36 4.0 7.0 0.00 0.00 0.00 79 1013.3
20260510021031 64 37 4.0 7.0 0.00 0.00 0.00 78 1013.3
20260510020526 64 35 4.0 7.0 0.00 0.00 0.00 77 1013.3
20260510020028 65 37 4.0 7.0 0.00 0.00 0.00 76 1013.2
20260510015522 65 35 4.0 6.0 0.00 0.00 0.00 75 1013.3
20260510015022 66 35 5.0 8.0 0.00 0.00 0.00 75 1013.3
20260510014603 66 38 4.0 9.0 0.00 0.00 0.00 74 1013.3
20260510014520 66 38 4.0 9.0 0.00 0.00 0.00 74 1013.3
20260510014021 66 34 5.0 8.0 0.00 0.00 0.00 75 1013.3
20260510013516 66 36 5.0 8.0 0.00 0.00 0.00 75 1013.2
20260510013020 67 36 4.0 9.0 0.00 0.00 0.00 74 1013.2
20260510012516 66 36 4.0 9.0 0.00 0.00 0.00 74 1013.1
20260510012052 67 34 4.0 8.0 0.00 0.00 0.00 74 1013.2
20260510011531 66 36 5.0 9.0 0.00 0.00 0.00 73 1013.2
20260510011107 67 37 5.0 9.0 0.00 0.00 0.00 73 1013.2
20260510011024 67 37 5.0 9.0 0.00 0.00 0.00 73 1013.2
20260510010600 66 35 6.0 10.0 0.00 0.00 0.00 72 1013.2
20260510010518 66 35 6.0 10.0 0.00 0.00 0.00 72 1013.2
20260510010020 67 34 6.0 10.0 0.00 0.00 0.00 72 1013.2
20260510005535 67 37 5.0 11.0 0.00 0.00 0.00 71 1013.2
20260510005107 67 35 6.0 11.0 0.00 0.00 0.00 72 1013.3
20260510005024 67 35 6.0 11.0 0.00 0.00 0.00 72 1013.3
20260510004608 67 38 7.0 12.0 0.00 0.00 0.00 71 1013.3
20260510004526 67 38 7.0 12.0 0.00 0.00 0.00 71 1013.3
20260510004021 68 35 7.0 12.0 0.00 0.00 0.00 71 1013.3
20260510003536 68 35 8.0 12.0 0.00 0.00 0.00 70 1013.3
20260510003038 68 32 7.0 12.0 0.00 0.00 0.00 69 1013.3
20260510002532 70 36 7.0 14.0 0.00 0.00 0.00 67 1013.2
20260510002108 69 35 9.0 14.0 0.00 0.00 0.00 67 1013.2
20260510002026 69 35 9.0 14.0 0.00 0.00 0.00 67 1013.2
20260510001548 70 36 7.0 13.0 0.00 0.00 0.00 67 1013.2
20260510001044 70 34 7.0 13.0 0.00 0.00 0.00 68 1013.1
20260510000519 70 37 7.0 11.0 0.00 0.00 0.00 67 1013.0
20260510000103 70 35 6.0 9.0 0.00 0.00 0.00 67 1012.9
20260510000021 70 35 6.0 9.0 0.00 0.00 0.00 67 1012.9
20260509235537 69 37 6.0 10.0 0.00 0.00 0.00 65 1012.9
20260509235031 70 36 6.0 10.0 0.00 0.00 0.00 65 1012.9
20260509234535 69 34 6.0 9.0 0.00 0.00 0.00 66 1012.8
20260509234029 71 36 6.0 11.0 0.00 0.00 0.00 65 1012.9
20260509233546 70 36 6.0 11.0 0.00 0.00 0.00 67 1012.9
20260509233032 69 32 6.0 11.0 0.00 0.00 0.00 67 1013.0
20260509232604 70 36 7.0 11.0 0.00 0.00 0.00 67 1013.0
20260509232043 72 35 5.0 10.0 0.00 0.00 0.00 64 1013.0
20260509231523 70 36 6.0 11.0 0.00 0.00 0.00 67 1013.0
20260509231040 71 35 7.0 11.0 0.00 0.00 0.00 66 1013.1
20260509230536 71 36 7.0 11.0 0.00 0.00 0.00 65 1013.1
20260509230037 70 35 6.0 10.0 0.00 0.00 0.00 65 1013.1
20260509225531 70 36 6.0 11.0 0.00 0.00 0.00 67 1013.1
20260509225106 71 35 7.0 13.0 0.00 0.00 0.00 66 1013.1
20260509225024 71 35 7.0 13.0 0.00 0.00 0.00 66 1013.1
20260509224604 71 35 7.0 12.0 0.00 0.00 0.00 66 1013.2
20260509224522 71 35 7.0 12.0 0.00 0.00 0.00 66 1013.2
20260509224058 70 35 8.0 12.0 0.00 0.00 0.00 67 1013.3
20260509224016 70 35 8.0 12.0 0.00 0.00 0.00 67 1013.3
20260509223611 70 35 7.0 11.0 0.00 0.00 0.00 67 1013.3
20260509223053 70 32 6.0 10.0 0.00 0.00 0.00 67 1013.4
20260509222607 71 36 6.0 10.0 0.00 0.00 0.00 67 1013.4
20260509222101 70 34 5.0 11.0 0.00 0.00 0.00 66 1013.5
20260509221542 69 34 7.0 10.0 0.00 0.00 0.00 67 1013.5
20260509221017 69 34 5.0 10.0 0.00 0.00 0.00 66 1013.5
20260509220552 70 36 6.0 10.0 0.00 0.00 0.00 66 1013.6
20260509220015 70 36 7.0 12.0 0.00 0.00 0.00 65 1013.6
20260509215533 71 35 8.0 14.0 0.00 0.00 0.00 65 1013.6
20260509215107 71 37 7.0 14.0 0.00 0.00 0.00 65 1013.7
20260509214547 71 34 7.0 12.0 0.00 0.00 0.00 65 1013.7
20260509214021 71 35 7.0 11.0 0.00 0.00 0.00 66 1013.7
20260509213517 71 35 6.0 14.0 0.00 0.00 0.00 67 1013.7
20260509213039 70 32 7.0 15.0 0.00 0.00 0.00 67 1013.7
20260509212513 70 34 8.0 15.0 0.00 0.00 0.00 66 1013.8
20260509212029 72 36 6.0 12.0 0.00 0.00 0.00 64 1013.8
20260509211552 71 37 7.0 14.0 0.00 0.00 0.00 64 1013.9
20260509211106 71 35 6.0 14.0 0.00 0.00 0.00 66 1013.9
20260509211024 71 35 6.0 14.0 0.00 0.00 0.00 66 1013.9
20260509210540 71 35 7.0 14.0 0.00 0.00 0.00 64 1014.0
20260509210021 72 35 7.0 13.0 0.00 0.00 0.00 66 1014.1
20260509205515 70 35 8.0 12.0 0.00 0.00 0.00 67 1014.1
20260509205051 70 36 8.0 15.0 0.00 0.00 0.00 67 1014.1
20260509204555 70 36 9.0 15.0 0.00 0.00 0.00 68 1014.1
20260509204108 70 36 9.0 14.0 0.00 0.00 0.00 67 1014.2
20260509203542 70 34 10.0 14.0 0.00 0.00 0.00 66 1014.2
20260509203107 71 35 9.0 14.0 0.00 0.00 0.00 65 1014.2
20260509203024 71 35 9.0 14.0 0.00 0.00 0.00 65 1014.2
20260509202540 73 35 9.0 15.0 0.00 0.00 0.00 65 1014.2
20260509202014 72 35 10.0 15.0 0.00 0.00 0.00 66 1014.2
20260509201517 72 37 8.0 14.0 0.00 0.00 0.00 66 1014.2
20260509201113 71 35 8.0 13.0 0.00 0.00 0.00 65 1014.2
20260509201030 71 35 8.0 13.0 0.00 0.00 0.00 65 1014.2
20260509200526 72 36 7.0 14.0 0.00 0.00 0.00 64 1014.2
20260509200028 72 36 8.0 14.0 0.00 0.00 0.00 65 1014.2
20260509195543 72 35 8.0 14.0 0.00 0.00 0.00 64 1014.2
20260509195057 73 34 6.0 13.0 0.00 0.00 0.00 66 1014.2
20260509194609 72 32 8.0 13.0 0.00 0.00 0.00 66 1014.2
20260509194526 72 32 8.0 13.0 0.00 0.00 0.00 66 1014.2
20260509194043 73 34 9.0 16.0 0.00 0.00 0.00 65 1014.2
20260509193517 73 36 9.0 14.0 0.00 0.00 0.00 65 1014.2
20260509193020 73 35 8.0 12.0 0.00 0.00 0.00 66 1014.2
20260509192555 73 36 7.0 14.0 0.00 0.00 0.00 67 1014.2
20260509192048 72 36 8.0 14.0 0.00 0.00 0.00 65 1014.2
20260509191527 73 36 8.0 13.0 0.00 0.00 0.00 66 1014.2
20260509191044 73 36 7.0 12.0 0.00 0.00 0.00 65 1014.2
20260509190539 74 34 7.0 12.0 0.00 0.00 0.00 64 1014.3
20260509190041 73 34 6.0 9.0 0.00 0.00 0.00 63 1014.2
20260509185556 75 36 5.0 10.0 0.00 0.00 0.00 64 1014.3
20260509185514 75 36 5.0 10.0 0.00 0.00 0.00 64 1014.3
20260509185029 74 36 5.0 10.0 0.00 0.00 0.00 64 1014.3
20260509184550 74 34 5.0 10.0 0.00 0.00 0.00 63 1014.3
20260509184025 75 34 5.0 9.0 0.00 0.00 0.00 63 1014.4
20260509183600 74 34 5.0 10.0 0.00 0.00 0.00 63 1014.3
20260509183040 74 36 4.0 10.0 0.00 0.00 0.00 63 1014.3
20260509182555 74 35 1.0 5.0 0.00 0.00 0.00 63 1014.3
20260509182512 74 35 1.0 5.0 0.00 0.00 0.00 63 1014.3
20260509182047 75 34 3.0 7.0 0.00 0.00 0.00 66 1014.3
20260509181613 72 35 1.0 5.0 0.00 0.00 0.00 66 1014.4
20260509181530 72 35 1.0 5.0 0.00 0.00 0.00 66 1014.4
20260509181027 71 36 2.0 6.0 0.00 0.00 0.00 67 1014.5
20260509180543 71 34 4.0 6.0 0.00 0.00 0.00 68 1014.5
20260509180107 71 36 4.0 6.0 0.00 0.00 0.00 67 1014.5
20260509180024 71 36 4.0 6.0 0.00 0.00 0.00 67 1014.5
20260509175520 72 35 2.0 6.0 0.00 0.00 0.00 67 1014.6
20260509175015 71 34 3.0 6.0 0.00 0.00 0.00 66 1014.7
20260509174609 70 36 1.0 5.0 0.00 0.00 0.00 68 1014.8
20260509174102 70 34 3.0 5.0 0.00 0.00 0.00 68 1014.9
20260509174020 70 34 3.0 5.0 0.00 0.00 0.00 68 1014.9
20260509173535 70 35 3.0 5.0 0.00 0.00 0.00 69 1014.8
20260509173017 69 32 2.0 5.0 0.00 0.00 0.00 72 1014.8
20260509172612 68 36 3.0 5.0 0.00 0.00 0.00 72 1014.9
20260509172530 68 36 3.0 5.0 0.00 0.00 0.00 72 1014.9
20260509172101 69 36 2.0 5.0 0.00 0.00 0.00 72 1014.9
20260509171613 68 35 2.0 5.0 0.00 0.00 0.00 73 1014.8
20260509171107 67 32 3.0 5.0 0.00 0.00 0.00 73 1014.9
20260509171024 67 32 3.0 5.0 0.00 0.00 0.00 73 1014.9
20260509170558 67 35 3.0 5.0 0.00 0.00 0.00 76 1014.8
20260509170516 67 35 3.0 5.0 0.00 0.00 0.00 76 1014.8
20260509170110 67 37 3.0 5.0 0.00 0.00 0.00 76 1014.8
20260509165603 66 36 3.0 5.0 0.00 0.00 0.00 75 1014.8
20260509165521 66 36 3.0 5.0 0.00 0.00 0.00 75 1014.8
20260509165016 66 34 2.0 6.0 0.00 0.00 0.00 78 1014.8
20260509164610 65 38 2.0 6.0 0.00 0.00 0.00 78 1014.8
20260509164042 64 35 3.0 6.0 0.00 0.00 0.00 78 1014.8
20260509163556 65 35 1.0 5.0 0.00 0.00 0.00 79 1014.9
20260509163037 64 36 2.0 5.0 0.00 0.00 0.00 79 1015.0
20260509162611 64 36 3.0 4.0 0.00 0.00 0.00 80 1015.0
20260509162101 64 37 3.0 7.0 0.00 0.00 0.00 81 1015.0
20260509162018 64 37 3.0 7.0 0.00 0.00 0.00 81 1015.0
20260509161525 64 34 2.0 7.0 0.00 0.00 0.00 81 1015.1
20260509161056 63 35 2.0 8.0 0.00 0.00 0.00 81 1015.0
20260509160534 63 35 3.0 8.0 0.00 0.00 0.00 81 1015.1
20260509160036 64 35 2.0 5.0 0.00 0.00 0.00 80 1015.1
20260509155532 63 36 1.0 3.0 0.00 0.00 0.00 83 1015.1
20260509155047 62 32 2.0 3.0 0.00 0.00 0.00 84 1015.1
20260509154612 62 35 1.0 3.0 0.00 0.00 0.00 84 1015.1
20260509154530 62 35 1.0 3.0 0.00 0.00 0.00 84 1015.1
20260509154045 62 35 1.0 5.0 0.00 0.00 0.00 84 1015.1
20260509153541 61 35 0.0 5.0 0.00 0.00 0.00 87 1015.1
20260509153023 61 36 2.0 7.0 0.00 0.00 0.00 86 1015.1
20260509152539 61 35 1.0 7.0 0.00 0.00 0.00 87 1015.1
20260509152053 61 38 1.0 6.0 0.00 0.00 0.00 87 1015.0
20260509151555 61 32 1.0 6.0 0.00 0.00 0.00 87 1015.1
20260509151050 61 34 2.0 5.0 0.00 0.00 0.00 87 1015.1
20260509150605 61 35 2.0 4.0 0.00 0.00 0.00 87 1015.1
20260509150020 61 34 1.0 3.0 0.00 0.00 0.00 87 1015.1
20260509145536 61 38 1.0 3.0 0.00 0.00 0.00 87 1015.2
20260509145036 61 35 1.0 3.0 0.00 0.00 0.00 88 1015.2
20260509144516 61 35 1.0 4.0 0.00 0.00 0.00 88 1015.1
20260509144108 60 34 1.0 4.0 0.00 0.00 0.00 89 1015.0
20260509143546 60 36 1.0 3.0 0.00 0.00 0.00 89 1014.9
20260509143028 60 38 1.0 2.0 0.00 0.00 0.00 89 1014.9
20260509142559 60 35 1.0 4.0 0.00 0.00 0.00 89 1015.0
20260509142516 60 35 1.0 4.0 0.00 0.00 0.00 89 1015.0
20260509142113 60 36 2.0 4.0 0.00 0.00 0.00 89 1015.0
20260509141552 60 36 1.0 3.0 0.00 0.00 0.00 89 1014.9
20260509141027 60 37 1.0 2.0 0.00 0.00 0.00 90 1014.9
20260509140543 60 35 0.0 4.0 0.00 0.00 0.00 90 1014.8
20260509140043 60 34 1.0 4.0 0.00 0.00 0.00 90 1014.9
20260509135517 60 35 1.0 4.0 0.00 0.00 0.00 90 1014.8
20260509135113 60 36 0.0 2.0 0.00 0.00 0.00 91 1014.8
20260509135030 60 36 0.0 2.0 0.00 0.00 0.00 91 1014.8
20260509134553 60 36 1.0 2.0 0.00 0.00 0.00 91 1014.8
20260509134107 60 36 1.0 3.0 0.00 0.00 0.00 91 1014.8
20260509133601 60 36 0.0 3.0 0.00 0.00 0.00 91 1014.8
20260509133518 60 36 0.0 3.0 0.00 0.00 0.00 91 1014.8
20260509133112 60 36 1.0 3.0 0.00 0.00 0.00 91 1014.7
20260509132546 60 37 1.0 3.0 0.00 0.00 0.00 91 1014.7
20260509132101 60 37 0.0 2.0 0.00 0.00 0.00 91 1014.7
20260509131605 60 36 0.0 2.0 0.00 0.00 0.00 91 1014.7
20260509131523 60 36 0.0 2.0 0.00 0.00 0.00 91 1014.7
20260509131038 60 35 1.0 4.0 0.00 0.00 0.00 91 1014.7
20260509130554 60 35 1.0 4.0 0.00 0.00 0.00 91 1014.7
20260509130016 60 35 1.0 4.0 0.00 0.00 0.00 91 1014.6
20260509125553 60 34 1.0 2.0 0.00 0.00 0.00 91 1014.5
20260509125049 60 36 1.0 3.0 0.00 0.00 0.00 91 1014.6
20260509124551 60 36 1.0 4.0 0.00 0.00 0.00 91 1014.6
20260509124045 60 36 2.0 3.0 0.00 0.00 0.00 91 1014.5
20260509123519 60 37 1.0 3.0 0.00 0.00 0.00 91 1014.5
20260509123113 60 32 1.0 2.0 0.00 0.00 0.00 91 1014.5
20260509123030 60 32 1.0 2.0 0.00 0.00 0.00 91 1014.5
20260509122526 60 36 1.0 3.0 0.00 0.00 0.00 91 1014.4
20260509122020 60 35 2.0 3.0 0.00 0.00 0.00 91 1014.4
20260509121544 60 38 1.0 3.0 0.00 0.00 0.00 91 1014.4
20260509121040 60 35 0.0 2.0 0.00 0.00 0.00 91 1014.4
20260509120536 60 36 0.0 2.0 0.00 0.00 0.00 91 1014.4
20260509120038 60 36 1.0 2.0 0.00 0.00 0.00 91 1014.5
20260509115552 60 38 0.0 2.0 0.00 0.00 0.00 91 1014.5
20260509115107 60 37 1.0 3.0 0.00 0.00 0.00 91 1014.5
20260509115024 60 37 1.0 3.0 0.00 0.00 0.00 91 1014.5
20260509114526 59 34 1.0 4.0 0.00 0.00 0.00 91 1014.5
20260509114041 60 34 2.0 4.0 0.00 0.00 0.00 91 1014.6
20260509113537 60 35 2.0 5.0 0.00 0.00 0.00 91 1014.5
20260509113041 59 35 3.0 5.0 0.00 0.00 0.00 91 1014.5
20260509112515 60 38 2.0 5.0 0.00 0.00 0.00 91 1014.5
20260509112030 60 38 3.0 4.0 0.00 0.00 0.00 91 1014.5
20260509111530 60 38 3.0 4.0 0.00 0.00 0.00 91 1014.4
20260509111047 60 35 2.0 5.0 0.00 0.00 0.00 91 1014.4
20260509110523 60 35 2.0 3.0 0.00 0.00 0.00 91 1014.4
20260509110107 60 36 2.0 3.0 0.00 0.00 0.00 91 1014.4
20260509110025 60 36 2.0 3.0 0.00 0.00 0.00 91 1014.4
20260509105600 60 34 1.0 3.0 0.00 0.00 0.00 91 1014.5
20260509105518 60 34 1.0 3.0 0.00 0.00 0.00 91 1014.5
20260509105033 60 36 0.0 0.0 0.00 0.00 0.00 91 1014.5
20260509104537 60 35 0.0 0.0 0.00 0.00 0.00 91 1014.5
20260509104052 60 36 0.0 2.0 0.00 0.00 0.00 91 1014.6
20260509103547 60 35 1.0 2.0 0.00 0.00 0.00 91 1014.6
20260509103025 60 36 0.0 2.0 0.00 0.00 0.00 91 1014.7
20260509102601 60 34 0.0 0.0 0.00 0.00 0.00 91 1014.7
20260509102055 60 35 0.0 3.0 0.00 0.00 0.00 91 1014.7
20260509101558 60 35 1.0 3.0 0.00 0.00 0.00 91 1014.8
20260509101515 60 35 1.0 3.0 0.00 0.00 0.00 91 1014.8
20260509101052 60 36 0.0 2.0 0.00 0.00 0.00 91 1014.7
20260509100526 60 38 0.0 2.0 0.00 0.00 0.00 91 1014.7
20260509100048 60 36 1.0 4.0 0.00 0.00 0.00 91 1014.7
20260509095603 60 36 3.0 4.0 0.00 0.00 0.00 91 1014.7
20260509095520 60 36 3.0 4.0 0.00 0.00 0.00 91 1014.7
20260509095116 60 36 2.0 4.0 0.00 0.00 0.00 90 1014.7
20260509095033 60 36 2.0 4.0 0.00 0.00 0.00 90 1014.7
20260509094517 60 36 1.0 4.0 0.00 0.00 0.00 91 1014.8
20260509094052 60 35 2.0 4.0 0.00 0.00 0.00 91 1014.8
20260509093606 60 36 2.0 3.0 0.00 0.00 0.00 91 1014.7
20260509093110 60 34 2.0 3.0 0.00 0.00 0.00 91 1014.8
20260509093027 60 34 2.0 3.0 0.00 0.00 0.00 91 1014.8
20260509092523 60 38 1.0 2.0 0.00 0.00 0.00 91 1014.9
20260509092018 60 35 1.0 2.0 0.00 0.00 0.00 91 1014.9
20260509091612 60 37 1.0 2.0 0.00 0.00 0.00 90 1014.9
20260509091105 60 36 0.0 2.0 0.00 0.00 0.00 90 1015.0
20260509091023 60 36 0.0 2.0 0.00 0.00 0.00 90 1015.0
20260509090518 60 32 0.0 0.0 0.00 0.00 0.00 91 1015.0
20260509085516 60 34 0.0 0.0 0.00 0.00 0.00 90 1015.1
20260509085113 60 38 0.0 2.0 0.00 0.00 0.00 90 1015.1
20260509084531 60 35 0.0 2.0 0.00 0.00 0.00 91 1015.2
20260509084046 60 35 0.0 2.0 0.00 0.00 0.00 90 1015.2
20260509083600 60 35 0.0 0.0 0.00 0.00 0.00 90 1015.2
20260509083058 60 35 0.0 0.0 0.00 0.00 0.00 91 1015.3
20260509082515 60 34 0.0 2.0 0.00 0.00 0.00 90 1015.3
20260509082052 60 37 0.0 2.0 0.00 0.00 0.00 90 1015.3
20260509081554 60 38 1.0 3.0 0.00 0.00 0.00 90 1015.4
20260509081105 60 36 1.0 3.0 0.00 0.00 0.00 90 1015.4
20260509080522 60 34 2.0 3.0 0.00 0.00 0.00 90 1015.5
20260509075557 60 35 1.0 3.0 0.00 0.00 0.00 90 1015.5
20260509075051 60 37 2.0 5.0 0.00 0.00 0.00 89 1015.5
20260509074554 60 35 2.0 4.0 0.00 0.00 0.00 89 1015.6
20260509074109 60 34 3.0 6.0 0.00 0.00 0.00 89 1015.6
20260509073523 60 34 3.0 6.0 0.00 0.00 0.00 89 1015.6
20260509073025 61 36 2.0 4.0 0.00 0.00 0.00 89 1015.6
20260509072520 60 37 2.0 4.0 0.00 0.00 0.00 89 1015.6
20260509072019 61 37 2.0 4.0 0.00 0.00 0.00 89 1015.6
20260509071523 61 36 1.0 4.0 0.00 0.00 0.00 89 1015.7
20260509071018 61 35 0.0 2.0 0.00 0.00 0.00 89 1015.7
20260509070514 60 34 1.0 4.0 0.00 0.00 0.00 89 1015.8
20260509070017 61 37 2.0 4.0 0.00 0.00 0.00 88 1015.9
20260509065612 61 35 2.0 3.0 0.00 0.00 0.00 88 1015.9
20260509065530 61 35 2.0 3.0 0.00 0.00 0.00 88 1015.9
20260509065045 61 35 2.0 3.0 0.00 0.00 0.00 88 1015.9
20260509064607 61 37 2.0 3.0 0.00 0.00 0.00 88 1015.9
20260509064022 61 35 1.0 3.0 0.00 0.00 0.00 88 1015.9
20260509063517 61 38 2.0 5.0 0.00 0.00 0.00 88 1015.9
20260509063111 61 35 2.0 5.0 0.00 0.00 0.00 88 1015.9
20260509062545 61 35 2.0 3.0 0.00 0.00 0.00 88 1015.9
20260509062041 61 37 1.0 3.0 0.00 0.00 0.00 88 1015.9
20260509061605 61 37 2.0 3.0 0.00 0.00 0.00 88 1015.9
20260509061039 61 38 1.0 3.0 0.00 0.00 0.00 87 1016.0
20260509060615 61 35 1.0 2.0 0.00 0.00 0.00 88 1016.0
20260509060533 61 35 1.0 2.0 0.00 0.00 0.00 88 1016.0
20260509060015 61 36 1.0 4.0 0.00 0.00 0.00 88 1015.9
20260509055551 61 35 1.0 3.0 0.00 0.00 0.00 87 1015.9
20260509055046 61 36 1.0 3.0 0.00 0.00 0.00 87 1016.0
20260509054609 61 38 0.0 3.0 0.00 0.00 0.00 87 1015.9
20260509054022 61 35 1.0 3.0 0.00 0.00 0.00 87 1016.0
20260509053517 61 35 1.0 2.0 0.00 0.00 0.00 87 1016.1
20260509053041 61 36 0.0 4.0 0.00 0.00 0.00 87 1016.1
20260509052515 61 36 1.0 4.0 0.00 0.00 0.00 87 1016.1
20260509052052 61 37 2.0 3.0 0.00 0.00 0.00 87 1016.1
20260509051556 61 36 1.0 3.0 0.00 0.00 0.00 87 1016.2
20260509051513 61 36 1.0 3.0 0.00 0.00 0.00 87 1016.2
20260509051029 61 38 2.0 4.0 0.00 0.00 0.00 87 1016.2
20260509050544 61 37 2.0 4.0 0.00 0.00 0.00 86 1016.2
20260509050046 61 35 2.0 4.0 0.00 0.00 0.00 86 1016.1
20260509045521 61 34 2.0 4.0 0.00 0.00 0.00 87 1016.1
20260509045039 61 35 1.0 3.0 0.00 0.00 0.00 86 1016.1
20260509044612 61 37 0.0 2.0 0.00 0.00 0.00 86 1016.1
20260509044530 61 37 0.0 2.0 0.00 0.00 0.00 86 1016.1
20260509044106 61 35 1.0 3.0 0.00 0.00 0.00 87 1016.0
20260509044024 61 35 1.0 3.0 0.00 0.00 0.00 87 1016.0
20260509043541 61 35 2.0 3.0 0.00 0.00 0.00 87 1016.0
20260509043113 61 35 1.0 3.0 0.00 0.00 0.00 87 1016.0
20260509042546 61 35 2.0 3.0 0.00 0.00 0.00 86 1016.0
20260509042020 61 36 2.0 3.0 0.00 0.00 0.00 86 1016.0
20260509041543 61 35 1.0 3.0 0.00 0.00 0.00 86 1015.9
20260509041039 61 36 2.0 3.0 0.00 0.00 0.00 86 1015.8
20260509040533 62 35 1.0 4.0 0.00 0.00 0.00 85 1015.8
20260509040015 62 35 2.0 4.0 0.00 0.00 0.00 85 1015.8
20260509035552 62 38 2.0 3.0 0.00 0.00 0.00 86 1015.8
20260509035106 62 38 2.0 4.0 0.00 0.00 0.00 85 1015.8
20260509035023 62 38 2.0 4.0 0.00 0.00 0.00 85 1015.8
20260509034609 62 35 2.0 4.0 0.00 0.00 0.00 84 1015.7
20260509034022 62 36 1.0 3.0 0.00 0.00 0.00 84 1015.6
20260509033557 62 35 1.0 4.0 0.00 0.00 0.00 86 1015.6
20260509033057 62 38 3.0 5.0 0.00 0.00 0.00 85 1015.5
20260509033015 62 38 3.0 5.0 0.00 0.00 0.00 85 1015.5
20260509032606 62 35 2.0 5.0 0.00 0.00 0.00 85 1015.5
20260509032523 62 35 2.0 5.0 0.00 0.00 0.00 85 1015.5
20260509032059 62 36 3.0 6.0 0.00 0.00 0.00 85 1015.5
20260509032016 62 36 3.0 6.0 0.00 0.00 0.00 85 1015.5
20260509031601 62 36 3.0 6.0 0.00 0.00 0.00 85 1015.5
20260509031036 62 38 3.0 5.0 0.00 0.00 0.00 85 1015.5
20260509030531 62 35 3.0 5.0 0.00 0.00 0.00 86 1015.5
20260509030014 62 36 4.0 8.0 0.00 0.00 0.00 85 1015.5
20260509025610 62 34 4.0 8.0 0.00 0.00 0.00 85 1015.4
20260509025527 62 34 4.0 8.0 0.00 0.00 0.00 85 1015.4
20260509025023 62 34 5.0 8.0 0.00 0.00 0.00 84 1015.4
20260509024607 62 35 4.0 8.0 0.00 0.00 0.00 84 1015.2